Osceola Municipal, IA

2:42 AM CDT on June 24, 2017 (GMT -0500)
Osceola Municipal

Weather History for KI75 - April, 2013

Change the Weather History Date:

Wednesday, April 3, 2013

  Actual Average (KCNC) Record (KCNC)
Temperature  
Mean Temperature 36 °F -  
Max Temperature 50 °F 56 °F 86 °F (2011)
Min Temperature 23 °F 32 °F 8 °F (1975)
Degree Days  
Heating Degree Days 28    
Moisture  
Dew Point 20 °F    
Average Humidity 55    
Maximum Humidity 86    
Minimum Humidity 28    
Precipitation  
Precipitation 0.00 in - - ()
Sea Level Pressure  
Sea Level Pressure 30.32 in    
Wind  
Wind Speed 5 mph (ESE)    
Max Wind Speed 12 mph    
Max Gust Speed -    
Visibility 10 miles    
Events      
Averages and records for this station are not official NWS values.
T = Trace of Precipitation, MM = Missing Value Source: NWS Daily Summary

Daily Weather History Graph

Daily Weather History Graph

Search for Another Location

Airport or City:

Trip Planner

Search our weather history database for the weather conditions in past years. The results will help you decide how hot, cold, wet, or windy it might be!

Date:

Astronomy

Apr. 03, 2013 Rise Set
Actual Time 6:54 AM CDT 7:42 PM CDT
Civil Twilight 6:26 AM CDT 8:10 PM CDT
Nautical Twilight 5:53 AM CDT 8:43 PM CDT
Astronomical Twilight 5:19 AM CDT 9:17 PM CDT
Moon 2:38 AM CDT (4/3) 12:52 PM CDT (4/3)
Length of Visible Light 13h 43m
Length of Day
12h 47m
Last Quarter, 44% of the Moon is Illuminated
Apr 3
Last Quarter
Apr 10
New
Apr 18
First Quarter
Apr 25
Full
May 2
Last Quarter

Hourly Weather History & Observations

Time (CDT) Temp. Windchill Dew Point Humidity Pressure Visibility Wind Dir Wind Speed Gust Speed Precip Events Conditions
12:15 AM 30.9 °F 22.8 °F 21.7 °F 69% 30.32 in 10.0 mi ENE 9.2 mph - N/A   Overcast
12:35 AM 30.9 °F 25.2 °F 22.1 °F 70% 30.32 in 10.0 mi East 5.8 mph - N/A   Overcast
12:55 AM 30.4 °F 24.5 °F 21.7 °F 70% 30.33 in 10.0 mi East 5.8 mph - N/A   Overcast
1:15 AM 29.1 °F 24.1 °F 21.2 °F 72% 30.33 in 10.0 mi East 4.6 mph - N/A   Mostly Cloudy
1:35 AM 28.2 °F 23.1 °F 21.0 °F 74% 30.33 in 10.0 mi ENE 4.6 mph - N/A   Scattered Clouds
1:55 AM 28.0 °F 24.2 °F 20.8 °F 74% 30.33 in 10.0 mi East 3.5 mph - N/A   Clear
2:15 AM 27.5 °F 23.6 °F 20.8 °F 76% 30.33 in 10.0 mi East 3.5 mph - N/A   Clear
2:35 AM 27.5 °F 23.6 °F 20.3 °F 74% 30.33 in 10.0 mi ESE 3.5 mph - N/A   Clear
2:55 AM 25.7 °F - 19.8 °F 78% 30.33 in 10.0 mi Calm Calm - N/A   Clear
3:15 AM 27.1 °F 23.2 °F 21.0 °F 78% 30.35 in 10.0 mi SSE 3.5 mph - N/A   Mostly Cloudy
3:35 AM 27.0 °F - 22.3 °F 83% 30.34 in 10.0 mi Calm Calm - N/A   Overcast
3:55 AM 26.8 °F - 21.7 °F 81% 30.34 in 10.0 mi Calm Calm - N/A   Overcast
4:15 AM 27.3 °F 23.4 °F 22.1 °F 81% 30.33 in 10.0 mi NE 3.5 mph - N/A   Overcast
4:35 AM 27.1 °F - 22.1 °F 81% 30.34 in 10.0 mi Calm Calm - N/A   Overcast
4:55 AM 27.3 °F 23.4 °F 21.9 °F 80% 30.34 in 10.0 mi ENE 3.5 mph - N/A   Overcast
5:15 AM 26.6 °F 21.2 °F 21.6 °F 81% 30.34 in 10.0 mi NE 4.6 mph - N/A   Mostly Cloudy
5:35 AM 26.2 °F 22.1 °F 21.2 °F 81% 30.35 in 10.0 mi NE 3.5 mph - N/A   Scattered Clouds
5:55 AM 25.2 °F 20.9 °F 20.3 °F 82% 30.36 in 10.0 mi NE 3.5 mph - N/A   Clear
6:15 AM 25.0 °F - 20.3 °F 82% 30.37 in 10.0 mi Calm Calm - N/A   Clear
6:35 AM 25.0 °F 19.3 °F 20.5 °F 83% 30.37 in 10.0 mi East 4.6 mph - N/A   Clear
6:55 AM 23.7 °F - 20.1 °F 86% 30.38 in 10.0 mi Calm Calm - N/A   Clear
7:15 AM 24.4 °F 20.1 °F 20.3 °F 84% 30.38 in 10.0 mi East 3.5 mph - N/A   Clear
7:35 AM 25.3 °F - 21.0 °F 84% 30.38 in 10.0 mi Calm Calm - N/A   Clear
7:55 AM 27.1 °F 23.2 °F 21.7 °F 80% 30.39 in 10.0 mi ESE 3.5 mph - N/A   Clear
8:15 AM 28.6 °F 24.8 °F 21.7 °F 76% 30.39 in 10.0 mi East 3.5 mph - N/A   Clear
8:35 AM 29.3 °F 24.3 °F 21.2 °F 72% 30.39 in 10.0 mi East 4.6 mph - N/A   Clear
8:55 AM 30.7 °F 24.1 °F 20.7 °F 66% 30.39 in 10.0 mi ESE 6.9 mph - N/A   Clear
9:15 AM 31.6 °F 22.6 °F 19.9 °F 62% 30.39 in 10.0 mi ESE 11.5 mph - N/A   Clear
9:35 AM 32.5 °F 25.5 °F 20.8 °F 62% 30.39 in 10.0 mi ESE 8.1 mph - N/A   Clear
9:55 AM 34.0 °F 26.0 °F 20.8 °F 59% 30.39 in 10.0 mi SE 10.4 mph - N/A   Clear
10:15 AM 35.1 °F 27.4 °F 20.5 °F 55% 30.39 in 10.0 mi ESE 10.4 mph - N/A   Clear
10:35 AM 36.1 °F 29.9 °F 20.1 °F 52% 30.39 in 10.0 mi East 8.1 mph - N/A   Clear
10:55 AM 37.6 °F 31.0 °F 20.7 °F 51% 30.39 in 10.0 mi ESE 9.2 mph - N/A   Clear
11:15 AM 38.3 °F 32.5 °F 19.6 °F 47% 30.39 in 10.0 mi ESE 8.1 mph - N/A   Clear
11:35 AM 39.7 °F 33.7 °F 19.9 °F 45% 30.40 in 10.0 mi ESE 9.2 mph - N/A   Clear
11:55 AM 40.3 °F 34.4 °F 19.4 °F 43% 30.39 in 10.0 mi ESE 9.2 mph - N/A   Clear
12:15 PM 42.3 °F 37.3 °F 20.3 °F 42% 30.38 in 10.0 mi ENE 8.1 mph - N/A   Clear
12:35 PM 42.8 °F 41.1 °F 20.1 °F 40% 30.37 in 10.0 mi SE 3.5 mph - N/A   Clear
12:55 PM 42.6 °F 39.9 °F 18.5 °F 38% 30.35 in 10.0 mi ESE 4.6 mph - N/A   Clear
1:15 PM 45.5 °F 43.2 °F 20.1 °F 36% 30.35 in 10.0 mi ESE 4.6 mph - N/A   Clear
1:35 PM 45.7 °F 42.7 °F 19.4 °F 35% 30.33 in 10.0 mi East 5.8 mph - N/A   Clear
1:55 PM 45.9 °F - 17.6 °F 32% 30.32 in 10.0 mi Calm Calm - N/A   Clear
2:15 PM 46.0 °F - 17.2 °F 32% 30.32 in 10.0 mi Calm Calm - N/A   Clear
2:35 PM 47.8 °F - 18.3 °F 31% 30.32 in 10.0 mi NE 6.9 mph - N/A   Clear
2:55 PM 48.2 °F - 18.3 °F 31% 30.32 in 10.0 mi ESE 5.8 mph - N/A   Clear
3:15 PM 47.5 °F - 17.1 °F 30% 30.31 in 10.0 mi Calm Calm - N/A   Clear
3:35 PM 48.4 °F - 17.1 °F 29% 30.31 in 10.0 mi Calm Calm - N/A   Clear
3:55 PM 48.9 °F - 17.2 °F 28% 30.31 in 10.0 mi Calm Calm - N/A   Clear
4:15 PM 49.3 °F - 18.0 °F 29% 30.29 in 10.0 mi SSE 3.5 mph - N/A   Clear
4:35 PM 50.2 °F - 19.0 °F 29% 30.28 in 10.0 mi East 4.6 mph - N/A   Clear
4:55 PM 49.8 °F - 19.2 °F 30% 30.27 in 10.0 mi Calm Calm - N/A   Clear
5:15 PM 50.0 °F - 19.4 °F 30% 30.27 in 10.0 mi East 5.8 mph - N/A   Clear
5:35 PM 48.6 °F - 19.8 °F 32% 30.26 in 10.0 mi ESE 4.6 mph - N/A   Clear
5:55 PM 48.6 °F - 19.9 °F 32% 30.26 in 10.0 mi East 3.5 mph - N/A   Clear
6:15 PM 48.2 °F - 19.8 °F 32% 30.26 in 10.0 mi East 4.6 mph - N/A   Clear
6:35 PM 47.5 °F - 20.1 °F 34% 30.26 in 10.0 mi ESE 6.9 mph - N/A   Clear
6:55 PM 47.3 °F - 19.9 °F 34% 30.26 in 10.0 mi ESE 6.9 mph - N/A   Clear
7:15 PM 45.7 °F 42.0 °F 20.3 °F 37% 30.26 in 10.0 mi ESE 6.9 mph - N/A   Clear
7:35 PM 43.5 °F 40.9 °F 20.3 °F 40% 30.25 in 10.0 mi SE 4.6 mph - N/A   Clear
7:55 PM 42.3 °F 40.5 °F 19.4 °F 40% 30.25 in 10.0 mi SE 3.5 mph - N/A   Clear
8:15 PM 41.0 °F 38.0 °F 19.8 °F 43% 30.25 in 10.0 mi SE 4.6 mph - N/A   Clear
8:35 PM 38.8 °F 34.6 °F 19.4 °F 46% 30.25 in 10.0 mi SE 5.8 mph - N/A   Clear
8:55 PM 37.8 °F 34.2 °F 19.4 °F 48% 30.25 in 10.0 mi SE 4.6 mph - N/A   Clear
9:15 PM 37.4 °F 33.8 °F 18.7 °F 47% 30.26 in 10.0 mi SSE 4.6 mph - N/A   Clear
9:35 PM 36.7 °F 32.0 °F 18.3 °F 47% 30.26 in 10.0 mi SSE 5.8 mph - N/A   Clear
9:55 PM 36.5 °F 32.7 °F 17.6 °F 46% 30.26 in 10.0 mi SSE 4.6 mph - N/A   Clear
10:15 PM 36.5 °F 32.7 °F 17.1 °F 45% 30.26 in 10.0 mi SE 4.6 mph - N/A   Clear
10:35 PM 36.1 °F 32.3 °F 17.2 °F 46% 30.26 in 10.0 mi SE 4.6 mph - N/A   Clear
10:55 PM 34.3 °F 30.2 °F 18.0 °F 51% 30.25 in 10.0 mi SE 4.6 mph - N/A   Clear
11:15 PM 33.8 °F 28.6 °F 18.0 °F 52% 30.25 in 10.0 mi SSE 5.8 mph - N/A   Clear
11:35 PM 34.3 °F 29.2 °F 18.1 °F 52% 30.25 in 10.0 mi SSE 5.8 mph - N/A   Clear
11:55 PM 34.7 °F 31.8 °F 17.1 °F 49% 30.25 in 10.0 mi South 3.5 mph - N/A   Clear